{"data":{"norad_id":63066,"epoch":"2026-09-21T00:06:16.825824Z","epoch_age_seconds":118732,"freshness":"FRESH","line1":"1 63066U 25035Q   26264.00436141  .00006134  00000+0  23212-3 0  9991","line2":"2 63066  43.0039 123.7765 0001773 266.7603  93.3046 15.27600904 89603","mean_motion":15.27600904,"eccentricity":0.0001773,"inclination_deg":43.0039,"raan_deg":123.7765,"arg_perigee_deg":266.7603,"mean_anomaly_deg":93.3046,"bstar":0.00023212,"rev_number":8960,"period_min":94.26545874838,"perigee_km":481.77002546025,"apogee_km":484.20297985429,"semimajor_km":6861.1235026573,"source":"CELESTRAK","updated_at":"2026-09-22T09:00:49.753533Z"}}